Adelaide, Australia

6:26 PM ACST on June 26, 2017 (GMT +0930)
Adelaide International

Weather History for YPAD - August, 2013

Change the Weather History Date:

Saturday, August 31, 2013

  Actual Average Record
Temperature  
Mean Temperature 64 °F -  
Max Temperature 77 °F 64 °F 77 °F (2013)
Min Temperature 51 °F 48 °F 37 °F (2015)
Degree Days  
Heating Degree Days 1    
Growing Degree Days 14 (Base 50)    
Moisture  
Dew Point 50 °F    
Average Humidity 60    
Maximum Humidity 88    
Minimum Humidity 28    
Precipitation  
Precipitation 0.00 in 0.05 in - ()
Sea Level Pressure  
Sea Level Pressure 29.96 in    
Wind  
Wind Speed 10 mph ()    
Max Wind Speed 17 mph    
Max Gust Speed -    
Visibility 10.5 miles    
Events      
Averages and records for this station are not official NWS values.
T = Trace of Precipitation, MM = Missing Value Source: Averaged Metar Reports

Daily Weather History Graph

Daily Weather History Graph

Search for Another Location

Airport or City:

Trip Planner

Search our weather history database for the weather conditions in past years. The results will help you decide how hot, cold, wet, or windy it might be!

Date:

Astronomy

Aug. 31, 2013 Rise Set
Actual Time 6:36 AM ACST 5:56 PM ACST
Civil Twilight 6:11 AM ACST 6:21 PM ACST
Nautical Twilight 5:42 AM ACST 6:51 PM ACST
Astronomical Twilight 5:12 AM ACST 7:20 PM ACST
Moon 2:48 AM ACST (8/31) 1:15 PM ACST (8/31)
Length of Visible Light 12h 10m
Length of Day
11h 19m
Waning Crescent, 25% of the Moon is Illuminated
Aug 31
Waning Crescent
Sep 5
New
Sep 13
First Quarter
Sep 19
Full
Sep 27
Last Quarter

Hourly Weather History & Observations

Time (ACST) Temp. Dew Point Humidity Pressure Visibility Wind Dir Wind Speed Gust Speed Precip Events Conditions
12:00 AM 55 °F 47 °F 68% 29.98 in 19 mi NNE 11.5 mph - -   Partly Cloudy
12:30 AM 54 °F 47 °F 72% 29.97 in - North 12.7 mph - -  
12:30 AM 53.6 °F 48.2 °F 82% 29.95 in - North 12.7 mph - N/A   Clear
1:00 AM 53.6 °F 46.4 °F 77% 29.95 in - NNE 10.4 mph - N/A   Clear
1:30 AM 51.8 °F 46.4 °F 82% 29.95 in - NNE 6.9 mph - N/A   Clear
2:00 AM 51.8 °F 46.4 °F 82% 29.95 in - ENE 6.9 mph - N/A   Clear
2:30 AM 51.8 °F 46.4 °F 82% 29.95 in - NE 8.1 mph - N/A   Clear
3:00 AM 51 °F 46 °F 76% 29.96 in 19 mi NE 10.4 mph - -   Partly Cloudy
3:00 AM 51.8 °F 46.4 °F 82% 29.95 in - NE 10.4 mph - N/A   Clear
3:30 AM 53 °F 45 °F 65% 29.96 in - NE 10.4 mph - -  
3:30 AM 53.6 °F 44.6 °F 72% 29.95 in - NE 10.4 mph - N/A   Clear
4:00 AM 53.6 °F 44.6 °F 72% 29.95 in - NE 9.2 mph - N/A   Clear
4:30 AM 51.8 °F 44.6 °F 76% 29.95 in - NE 8.1 mph - N/A   Clear
5:00 AM 51.8 °F 44.6 °F 76% 29.95 in - NE 10.4 mph - N/A   Clear
5:30 AM 53.6 °F 44.6 °F 72% 29.95 in - NE 9.2 mph - N/A   Clear
6:00 AM 52 °F 44 °F 66% 29.97 in 19 mi NE 10.4 mph - -   Partly Cloudy
6:00 AM 51.8 °F 44.6 °F 76% 29.95 in - NE 10.4 mph - N/A   Clear
6:30 AM 53 °F 44 °F 62% 29.97 in - NE 9.2 mph - -  
6:30 AM 53.6 °F 44.6 °F 72% 29.95 in - NE 9.2 mph - N/A   Clear
7:00 AM 53.6 °F 44.6 °F 72% 29.95 in - NE 8.1 mph - N/A   Clear
7:30 AM 57.2 °F 46.4 °F 67% 29.98 in - NNE 8.1 mph - N/A   Clear
8:00 AM 60.8 °F 46.4 °F 59% 29.98 in - NE 11.5 mph - N/A   Clear
8:30 AM 64.4 °F 46.4 °F 52% 29.98 in - NE 10.4 mph - N/A   Clear
9:00 AM 67 °F 45 °F 33% 30.00 in 25 mi NE 10.4 mph - -   Partly Cloudy
9:00 AM 68.0 °F 44.6 °F 43% 29.98 in - NE 10.4 mph - N/A   Clear
9:30 AM 70 °F 46 °F 31% 29.99 in - NNE 10.4 mph - -  
9:30 AM 69.8 °F 46.4 °F 43% 29.98 in - NNE 10.4 mph - N/A   Clear
10:00 AM 69.8 °F 46.4 °F 43% 29.98 in - North 17.3 mph - N/A   Clear
10:30 AM 71.6 °F 48.2 °F 43% 29.98 in - North 16.1 mph - N/A   Clear
11:00 AM 73.4 °F 48.2 °F 41% 29.98 in - North 16.1 mph - N/A   Clear
11:30 AM 75.2 °F 50.0 °F 41% 29.98 in - North 15.0 mph - N/A   Clear
12:00 PM 75.2 °F 50.0 °F 41% 29.98 in - North 17.3 mph - N/A   Clear
12:30 PM 76 °F 51 °F 30% 29.97 in - North 12.7 mph - -  
12:30 PM 75.2 °F 50.0 °F 41% 29.95 in - North 12.7 mph - N/A   Clear
1:00 PM 77.0 °F 50.0 °F 39% 29.95 in - North 17.3 mph - N/A   Clear
1:30 PM 77.0 °F 51.8 °F 41% 29.92 in - NNE 17.3 mph - N/A   Clear
2:00 PM 77.0 °F 50.0 °F 39% 29.92 in - North 12.7 mph - N/A   Clear
2:30 PM 75.2 °F 51.8 °F 44% 29.92 in 6.2 mi North 15.0 mph - N/A   Mostly Cloudy
3:00 PM 76 °F 49 °F 28% 29.95 in 25 mi North 15.0 mph - -   Partly Cloudy
3:00 PM 75.2 °F 50.0 °F 41% 29.95 in 6.2 mi North 15.0 mph - N/A   Mostly Cloudy
3:30 PM 77.0 °F 51.8 °F 41% 29.95 in 6.2 mi NNW 17.3 mph - N/A   Mostly Cloudy
4:00 PM 75.2 °F 53.6 °F 47% 29.92 in 6.2 mi North 17.3 mph - N/A   Scattered Clouds
4:30 PM 75.2 °F 53.6 °F 47% 29.92 in 6.2 mi North 12.7 mph - N/A   Partly Cloudy
5:00 PM 73.4 °F 55.4 °F 53% 29.92 in 6.2 mi North 13.8 mph - N/A   Partly Cloudy
5:30 PM 73.4 °F 55.4 °F 53% 29.92 in - North 12.7 mph - N/A   Clear
6:00 PM 69 °F 56 °F 53% 29.96 in 25 mi North 9.2 mph - -   Partly Cloudy
6:00 PM 69.8 °F 55.4 °F 60% 29.95 in - North 9.2 mph - N/A   Clear
6:30 PM 69 °F 56 °F 53% 29.97 in - North 8.1 mph - -  
6:30 PM 68.0 °F 55.4 °F 64% 29.95 in - North 8.1 mph - N/A   Clear
7:00 PM 64.4 °F 55.4 °F 73% 29.98 in - NE 5.8 mph - N/A   Clear
7:30 PM 64.4 °F 55.4 °F 73% 29.98 in - NE 6.9 mph - N/A   Clear
8:00 PM 62.6 °F 55.4 °F 77% 29.98 in - NE 8.1 mph - N/A   Clear
8:30 PM 62.6 °F 55.4 °F 77% 29.98 in - NE 6.9 mph - N/A   Clear
9:00 PM 62 °F 55 °F 73% 30.00 in 25 mi NE 8.1 mph - -   Partly Cloudy
9:30 PM 61 °F 55 °F 75% 30.00 in - NE 8.1 mph - -  
9:30 PM 60.8 °F 55.4 °F 82% 29.98 in - NE 8.1 mph - N/A   Clear
10:30 PM 64.4 °F 55.4 °F 73% 30.01 in - North 9.2 mph - N/A   Clear
11:00 PM 60.8 °F 55.4 °F 82% 30.01 in - North 10.4 mph - N/A   Clear
11:30 PM 59.0 °F 55.4 °F 88% 30.01 in - NNE 9.2 mph - N/A   Clear